Menu Close Menu
Station Historical Data
Daily Summary for August 20, 2017 Units:  Metric    English   Both
« Previous Day
Next Day »
Daily Weekly Monthly Yearly Custom
  High: Low: Average:
Temperature: 33.8 °C 19.8 °C 26.1 °C
Dew Point: 22.4 °C 18.3 °C 19.9 °C
Humidity: 93% 42% 71%
Wind Speed: 1.6km/h 0km/h 0km/h
Wind Gust: 4.8km/h - -
Wind- - SW
Pressure: 1019.9 hPa 1016.1 hPa -
Precipitation: 0 mm    
Historical Graphs
 
 
Tabular Data for August 20, 2017
Time Temperature Dew Point Pressure Wind Wind Speed Wind Gust Humidity Rainfall Rate (Hourly) solar Conditions
00:00 23.3 °C 20 °C 1016.5 hPa Calm     82% 0 mm WeatherDisplay:10.37 W/m2 CLR
00:05 23.2 °C 20.2 °C 1016.5 hPa Calm     83% 0 mm WeatherDisplay:10.37 W/m2 CLR
00:10 23.1 °C 20.1 °C 1016.5 hPa Calm     83% 0 mm WeatherDisplay:10.37 W/m2 CLR
00:15 23 °C 19.9 °C 1016.5 hPa Calm     83% 0 mm WeatherDisplay:10.37 W/m2 CLR
00:20 22.9 °C 19.9 °C 1016.5 hPa Calm     83% 0 mm WeatherDisplay:10.37 W/m2 CLR
00:25 22.8 °C 19.8 °C 1016.5 hPa Calm     83% 0 mm WeatherDisplay:10.37 W/m2 CLR
00:30 22.8 °C 19.9 °C 1016.5 hPa Calm     84% 0 mm WeatherDisplay:10.37 W/m2 CLR
00:40 22.6 °C 19.8 °C 1016.5 hPa Calm     84% 0 mm WeatherDisplay:10.37 W/m2 CLR
00:45 22.5 °C 19.9 °C 1016.5 hPa Calm     85% 0 mm WeatherDisplay:10.37 W/m2 CLR
00:50 22.4 °C 19.8 °C 1016.5 hPa Calm     85% 0 mm WeatherDisplay:10.37 W/m2 CLR
00:55 22.4 °C 19.7 °C 1016.5 hPa Calm     85% 0 mm WeatherDisplay:10.37 W/m2 CLR
01:00 22.3 °C 19.6 °C 1016.5 hPa Calm     85% 0 mm WeatherDisplay:10.37 W/m2 CLR
01:10 22.1 °C 19.7 °C 1016.8 hPa Calm     86% 0 mm WeatherDisplay:10.37 W/m2 CLR
01:15 22.1 °C 19.7 °C 1016.5 hPa Calm     86% 0 mm WeatherDisplay:10.37 W/m2 CLR
01:20 22.1 °C 19.6 °C 1016.5 hPa Calm     86% 0 mm WeatherDisplay:10.37 W/m2 CLR
01:25 21.9 °C 19.7 °C 1016.5 hPa Calm     87% 0 mm WeatherDisplay:10.37 W/m2 CLR
01:30 21.9 °C 19.6 °C 1016.5 hPa Calm     87% 0 mm WeatherDisplay:10.37 W/m2 CLR
01:40 21.8 °C 19.6 °C 1016.5 hPa Calm     87% 0 mm WeatherDisplay:10.37 W/m2 CLR
01:45 21.8 °C 19.5 °C 1016.5 hPa Calm     87% 0 mm WeatherDisplay:10.37 W/m2 CLR
01:50 21.7 °C 19.4 °C 1016.5 hPa Calm     87% 0 mm WeatherDisplay:10.37 W/m2 CLR
01:55 21.7 °C 19.6 °C 1016.5 hPa Calm     88% 0 mm WeatherDisplay:10.37 W/m2 CLR
02:00 21.7 °C 19.6 °C 1016.5 hPa Calm     88% 0 mm WeatherDisplay:10.37 W/m2 CLR
02:05 21.7 °C 19.6 °C 1016.5 hPa Calm     88% 0 mm WeatherDisplay:10.37 W/m2 CLR
02:10 21.6 °C 19.6 °C 1016.5 hPa Calm     88% 0 mm WeatherDisplay:10.37 W/m2 CLR
02:15 21.6 °C 19.6 °C 1016.5 hPa Calm     88% 0 mm WeatherDisplay:10.37 W/m2 CLR
02:20 21.6 °C 19.7 °C 1016.1 hPa Calm     89% 0 mm WeatherDisplay:10.37 W/m2 CLR
02:25 21.6 °C 19.7 °C 1016.1 hPa Calm     89% 0 mm WeatherDisplay:10.37 W/m2 CLR
02:30 21.6 °C 19.6 °C 1016.1 hPa Calm     88% 0 mm WeatherDisplay:10.37 W/m2 CLR
02:40 21.4 °C 19.4 °C 1016.1 hPa Calm     88% 0 mm WeatherDisplay:10.37 W/m2 CLR
02:45 21.4 °C 19.5 °C 1016.1 hPa Calm     89% 0 mm WeatherDisplay:10.37 W/m2 CLR
02:50 21.3 °C 19.4 °C 1016.1 hPa Calm     89% 0 mm WeatherDisplay:10.37 W/m2 CLR
02:55 21.3 °C 19.4 °C 1016.5 hPa Calm     89% 0 mm WeatherDisplay:10.37 W/m2 CLR
03:00 21.3 °C 19.4 °C 1016.5 hPa Calm     89% 0 mm WeatherDisplay:10.37 W/m2 CLR
03:05 21.2 °C 19.3 °C 1016.5 hPa Calm     89% 0 mm WeatherDisplay:10.37 W/m2 CLR
03:10 21.2 °C 19.3 °C 1016.5 hPa Calm     89% 0 mm WeatherDisplay:10.37 W/m2 CLR
03:15 21.1 °C 19.2 °C 1016.5 hPa Calm     89% 0 mm WeatherDisplay:10.37 W/m2 CLR
03:20 21.1 °C 19.4 °C 1016.1 hPa Calm     90% 0 mm WeatherDisplay:10.37 W/m2 CLR
03:25 21.1 °C 19.3 °C 1016.1 hPa Calm     90% 0 mm WeatherDisplay:10.37 W/m2 CLR
03:30 21 °C 19.3 °C 1016.1 hPa Calm     90% 0 mm WeatherDisplay:10.37 W/m2 CLR
03:35 20.9 °C 19.2 °C 1016.1 hPa Calm     90% 0 mm WeatherDisplay:10.37 W/m2 CLR
03:40 20.9 °C 19.2 °C 1016.5 hPa Calm     90% 0 mm WeatherDisplay:10.37 W/m2 CLR
03:45 21 °C 19.3 °C 1016.1 hPa Calm     90% 0 mm WeatherDisplay:10.37 W/m2 CLR
03:50 21 °C 19.5 °C 1016.5 hPa Calm     91% 0 mm WeatherDisplay:10.37 W/m2 CLR
03:55 21.1 °C 19.6 °C 1016.5 hPa Calm     91% 0 mm WeatherDisplay:10.37 W/m2 CLR
04:00 21.1 °C 19.6 °C 1016.5 hPa Calm     91% 0 mm WeatherDisplay:10.37 W/m2 CLR
04:05 21 °C 19.3 °C 1016.5 hPa Calm     90% 0 mm WeatherDisplay:10.37 W/m2 CLR
04:10 21 °C 19.5 °C 1016.5 hPa Calm     91% 0 mm WeatherDisplay:10.37 W/m2 CLR
04:15 21 °C 19.5 °C 1016.5 hPa Calm     91% 0 mm WeatherDisplay:10.37 W/m2 CLR
04:20 21 °C 19.5 °C 1016.5 hPa Calm     91% 0 mm WeatherDisplay:10.37 W/m2 CLR
04:25 21 °C 19.5 °C 1016.5 hPa Calm     91% 0 mm WeatherDisplay:10.37 W/m2 CLR
04:30 21 °C 19.5 °C 1016.5 hPa Calm     91% 0 mm WeatherDisplay:10.37 W/m2 CLR
04:35 20.9 °C 19.4 °C 1016.5 hPa Calm     91% 0 mm WeatherDisplay:10.37 W/m2 CLR
04:40 20.9 °C 19.4 °C 1016.5 hPa Calm     91% 0 mm WeatherDisplay:10.37 W/m2 CLR
04:45 20.8 °C 19.3 °C 1016.5 hPa Calm     91% 0 mm WeatherDisplay:10.37 W/m2 CLR
04:50 20.8 °C 19.3 °C 1016.5 hPa Calm     91% 0 mm WeatherDisplay:10.37 W/m2 CLR
04:55 20.8 °C 19.3 °C 1016.5 hPa Calm     91% 0 mm WeatherDisplay:10.37 W/m2 CLR
05:00 20.8 °C 19.3 °C 1016.5 hPa Calm     91% 0 mm WeatherDisplay:10.37 W/m2 CLR
05:05 20.7 °C 19 °C 1016.5 hPa Calm     90% 0 mm WeatherDisplay:10.37 W/m2 CLR
05:10 20.7 °C 19.2 °C 1016.8 hPa Calm     91% 0 mm WeatherDisplay:10.37 W/m2 CLR
05:15 20.6 °C 19.1 °C 1016.8 hPa Calm     91% 0 mm WeatherDisplay:10.37 W/m2 CLR
05:20 20.6 °C 19.1 °C 1016.8 hPa Calm     91% 0 mm WeatherDisplay:10.37 W/m2 CLR
05:25 20.6 °C 19.1 °C 1016.8 hPa Calm     91% 0 mm WeatherDisplay:10.37 W/m2 CLR
05:30 20.4 °C 18.7 °C 1016.8 hPa Calm     90% 0 mm WeatherDisplay:10.37 W/m2 CLR
05:35 20.4 °C 18.9 °C 1016.8 hPa Calm     91% 0 mm WeatherDisplay:10.37 W/m2 CLR
05:40 20.3 °C 18.8 °C 1016.8 hPa Calm     91% 0 mm WeatherDisplay:10.37 W/m2 CLR
05:45 20.3 °C 18.6 °C 1016.8 hPa Calm     90% 0 mm WeatherDisplay:10.37 W/m2 CLR
05:50 20.3 °C 18.8 °C 1016.8 hPa Calm     91% 0 mm WeatherDisplay:10.37 W/m2 CLR
05:55 20.3 °C 18.8 °C 1016.8 hPa Calm     91% 0 mm WeatherDisplay:10.37 W/m2 CLR
06:00 20.3 °C 18.8 °C 1017.2 hPa Calm     91% 0 mm WeatherDisplay:10.37 W/m2 CLR
06:05 20.2 °C 18.7 °C 1017.2 hPa Calm     91% 0 mm WeatherDisplay:10.37 W/m2 CLR
06:10 20.2 °C 18.7 °C 1017.2 hPa Calm     91% 0 mm WeatherDisplay:10.37 W/m2 CLR
06:15 20.2 °C 18.7 °C 1017.2 hPa Calm     91% 0 mm WeatherDisplay:10.37 W/m2 CLR
06:20 20.1 °C 18.6 °C 1017.2 hPa Calm     91% 0 mm WeatherDisplay:10.37 W/m2 CLR
06:25 20.1 °C 18.6 °C 1017.5 hPa Calm     91% 0 mm WeatherDisplay:10.37 W/m2 CLR
06:30 20.1 °C 18.6 °C 1017.5 hPa Calm     91% 0 mm WeatherDisplay:10.37 W/m2 CLR
06:35 20.1 °C 18.6 °C 1017.5 hPa Calm     91% 0 mm WeatherDisplay:10.37 W/m2 CLR
06:40 20 °C 18.5 °C 1017.5 hPa Calm     91% 0 mm WeatherDisplay:10.37 W/m2 CLR
06:45 20 °C 18.4 °C 1017.5 hPa Calm     91% 0 mm WeatherDisplay:10.37 W/m2 CLR
06:50 19.9 °C 18.4 °C 1017.5 hPa Calm     91% 0 mm WeatherDisplay:10.37 W/m2 CLR
06:55 19.9 °C 18.4 °C 1017.8 hPa Calm     91% 0 mm WeatherDisplay:10.37 W/m2 CLR
07:00 19.9 °C 18.4 °C 1017.8 hPa Calm     91% 0 mm WeatherDisplay:10.37 W/m2 CLR
07:05 19.8 °C 18.3 °C 1017.8 hPa Calm     91% 0 mm WeatherDisplay:10.37 W/m2 CLR
07:10 19.8 °C 18.3 °C 1017.8 hPa Calm     91% 0 mm WeatherDisplay:10.37 W/m2 CLR
07:15 19.8 °C 18.3 °C 1017.8 hPa Calm     91% 0 mm WeatherDisplay:10.37 W/m2 CLR
07:20 19.8 °C 18.3 °C 1017.8 hPa Calm     91% 0 mm WeatherDisplay:10.37 W/m2 FEW
07:25 19.8 °C 18.3 °C 1017.8 hPa Calm     91% 0 mm WeatherDisplay:10.37 W/m2 FEW
07:30 19.8 °C 18.3 °C 1017.8 hPa Calm     91% 0 mm WeatherDisplay:10.37 W/m2 FEW
07:35 19.8 °C 18.5 °C 1017.8 hPa Calm     92% 0 mm WeatherDisplay:10.37 W/m2 FEW
07:40 19.8 °C 18.5 °C 1017.8 hPa Calm     92% 0 mm WeatherDisplay:10.37 W/m2 FEW
07:45 19.9 °C 18.6 °C 1018.2 hPa Calm     92% 0 mm WeatherDisplay:10.37 W/m2 FEW
07:50 20 °C 18.7 °C 1018.2 hPa Calm     92% 0 mm WeatherDisplay:10.37 W/m2 FEW
07:55 20.2 °C 18.8 °C 1018.2 hPa Calm     92% 0 mm WeatherDisplay:10.37 W/m2 FEW
08:00 20.2 °C 18.9 °C 1018.2 hPa Calm     92% 0 mm WeatherDisplay:10.37 W/m2 FEW
08:05 20.3 °C 19 °C 1018.2 hPa Calm     92% 0 mm WeatherDisplay:10.37 W/m2 FEW
08:10 20.5 °C 19.2 °C 1018.2 hPa Calm     92% 0 mm WeatherDisplay:10.37 W/m2 FEW
08:15 20.8 °C 19.6 °C 1018.5 hPa Calm     93% 0 mm WeatherDisplay:10.37 W/m2 FEW
08:20 21 °C 19.8 °C 1018.5 hPa Calm     93% 0 mm WeatherDisplay:10.37 W/m2 FEW
08:25 21.2 °C 19.8 °C 1018.5 hPa Calm     92% 0 mm WeatherDisplay:10.37 W/m2 FEW
08:30 21.4 °C 20.1 °C 1018.5 hPa Calm     92% 0 mm WeatherDisplay:10.37 W/m2 FEW
08:35 21.7 °C 20.4 °C 1018.5 hPa Calm     92% 0 mm WeatherDisplay:10.37 W/m2 FEW
08:40 21.9 °C 20.4 °C 1018.5 hPa Calm     91% 0 mm WeatherDisplay:10.37 W/m2 FEW
08:45 22.2 °C 20.7 °C 1018.5 hPa Calm     91% 0 mm WeatherDisplay:10.37 W/m2 FEW
08:50 22.5 °C 20.8 °C 1018.8 hPa Calm     90% 0 mm WeatherDisplay:10.37 W/m2 FEW
08:55 22.7 °C 21 °C 1018.8 hPa Calm     90% 0 mm WeatherDisplay:10.37 W/m2 FEW
09:00 23.1 °C 21.1 °C 1018.8 hPa Calm     89% 0 mm WeatherDisplay:10.37 W/m2 FEW
09:05 23.4 °C 21.4 °C 1018.8 hPa Calm     89% 0 mm WeatherDisplay:10.37 W/m2 FEW
09:10 23.6 °C 21.3 °C 1018.8 hPa Calm     87% 0 mm WeatherDisplay:10.37 W/m2 FEW
09:15 23.8 °C 21.2 °C 1018.8 hPa Calm     85% 0 mm WeatherDisplay:10.37 W/m2 FEW
09:20 24.2 °C 21.4 °C 1018.8 hPa Calm     85% 0 mm WeatherDisplay:10.37 W/m2 CLR
09:25 24.6 °C 21.9 °C 1018.8 hPa Calm     85% 0 mm WeatherDisplay:10.37 W/m2 CLR
09:35 25.2 °C 22.1 °C 1018.8 hPa Calm     83% 0 mm WeatherDisplay:10.37 W/m2 CLR
09:40 25.4 °C 21.9 °C 1018.8 hPa Calm     81% 0 mm WeatherDisplay:10.37 W/m2 CLR
09:45 25.6 °C 21.5 °C 1018.8 hPa Calm     78% 0 mm WeatherDisplay:10.37 W/m2 CLR
09:50 25.9 °C 22 °C 1018.8 hPa Calm     79% 0 mm WeatherDisplay:10.37 W/m2 CLR
09:55 26.3 °C 21.9 °C 1018.8 hPa Calm     77% 0 mm WeatherDisplay:10.37 W/m2 CLR
10:00 26.7 °C 21.4 °C 1018.8 hPa Calm     73% 0 mm WeatherDisplay:10.37 W/m2 CLR
10:05 27.1 °C 21.4 °C 1019.2 hPa Calm     71% 0 mm WeatherDisplay:10.37 W/m2 CLR
10:10 27.3 °C 21.1 °C 1019.2 hPa Calm   1.6 km/h 69% 0 mm WeatherDisplay:10.37 W/m2 CLR
10:15 27.4 °C 21.2 °C 1019.2 hPa Calm   1.6 km/h 69% 0 mm WeatherDisplay:10.37 W/m2 CLR
10:20 27.6 °C 21.9 °C 1019.2 hPa Calm     71% 0 mm WeatherDisplay:10.37 W/m2 FEW
10:25 28.1 °C 22.3 °C 1018.8 hPa Calm   1.6 km/h 71% 0 mm WeatherDisplay:10.37 W/m2 FEW
10:30 28.2 °C 21.8 °C 1019.2 hPa Calm   1.6 km/h 68% 0 mm WeatherDisplay:10.37 W/m2 FEW
10:35 28.4 °C 22.2 °C 1019.2 hPa Calm     69% 0 mm WeatherDisplay:10.37 W/m2 FEW
10:40 28.7 °C 22.2 °C 1019.2 hPa Calm     68% 0 mm WeatherDisplay:10.37 W/m2 FEW
10:45 28.9 °C 22.4 °C 1019.2 hPa Calm     68% 0 mm WeatherDisplay:10.37 W/m2 FEW
10:50 28.9 °C 21.9 °C 1019.2 hPa Calm   1.6 km/h 66% 0 mm WeatherDisplay:10.37 W/m2 FEW
10:55 28.9 °C 21.4 °C 1019.2 hPa Calm     64% 0 mm WeatherDisplay:10.37 W/m2 FEW
11:00 28.8 °C 20.1 °C 1019.2 hPa SW 1.6 km/h 3.2 km/h 59% 0 mm WeatherDisplay:10.37 W/m2 FEW
11:10 28.7 °C 20.4 °C 1019.2 hPa Calm   1.6 km/h 61% 0 mm WeatherDisplay:10.37 W/m2 FEW
11:15 28.9 °C 20.4 °C 1019.2 hPa Calm   1.6 km/h 60% 0 mm WeatherDisplay:10.37 W/m2 FEW
11:20 29 °C 20.7 °C 1019.2 hPa Calm     61% 0 mm WeatherDisplay:10.37 W/m2 FEW
11:25 29.1 °C 20.8 °C 1019.2 hPa Calm   1.6 km/h 61% 0 mm WeatherDisplay:10.37 W/m2 FEW
11:30 29.4 °C 20.8 °C 1019.2 hPa Calm   1.6 km/h 60% 0 mm WeatherDisplay:10.37 W/m2 FEW
11:35 29.6 °C 20.1 °C 1019.2 hPa Calm   1.6 km/h 57% 0 mm WeatherDisplay:10.37 W/m2 FEW
11:40 29.6 °C 20.4 °C 1019.2 hPa Calm   3.2 km/h 58% 0 mm WeatherDisplay:10.37 W/m2 FEW
11:45 29.8 °C 20.7 °C 1019.2 hPa Calm   1.6 km/h 58% 0 mm WeatherDisplay:10.37 W/m2 FEW
11:50 29.9 °C 20.4 °C 1019.2 hPa Calm   1.6 km/h 57% 0 mm WeatherDisplay:10.37 W/m2 FEW
11:55 29.8 °C 20.1 °C 1019.2 hPa Calm   1.6 km/h 56% 0 mm WeatherDisplay:10.37 W/m2 FEW
12:00 29.8 °C 20.1 °C 1019.2 hPa Calm   1.6 km/h 56% 0 mm WeatherDisplay:10.37 W/m2 FEW
12:05 30 °C 20.5 °C 1019.2 hPa Calm   3.2 km/h 57% 0 mm WeatherDisplay:10.37 W/m2 FEW
12:10 30.1 °C 19.8 °C 1019.2 hPa Calm   3.2 km/h 54% 0 mm WeatherDisplay:10.37 W/m2 FEW
12:15 30.3 °C 20.2 °C 1019.2 hPa Calm   3.2 km/h 55% 0 mm WeatherDisplay:10.37 W/m2 FEW
12:20 30.6 °C 20.2 °C 1019.2 hPa Calm   4.8 km/h 54% 0 mm WeatherDisplay:10.37 W/m2 FEW
12:25 30.9 °C 19.9 °C 1019.2 hPa Calm   1.6 km/h 52% 0 mm WeatherDisplay:10.37 W/m2 FEW
12:30 31.3 °C 19.9 °C 1019.2 hPa Calm   1.6 km/h 51% 0 mm WeatherDisplay:10.37 W/m2 FEW
12:35 31.6 °C 20.2 °C 1019.2 hPa Calm   1.6 km/h 51% 0 mm WeatherDisplay:10.37 W/m2 FEW
12:40 31.9 °C 20.6 °C 1019.2 hPa Calm   1.6 km/h 51% 0 mm WeatherDisplay:10.37 W/m2 FEW
12:45 32.5 °C 20.7 °C 1019.2 hPa Calm     50% 0 mm WeatherDisplay:10.37 W/m2 FEW
12:50 32.8 °C 20.1 °C 1019.2 hPa Calm   3.2 km/h 47% 0 mm WeatherDisplay:10.37 W/m2 FEW
12:55 32.7 °C 19.6 °C 1019.2 hPa Calm   3.2 km/h 46% 0 mm WeatherDisplay:10.37 W/m2 FEW
13:00 32.6 °C 19.8 °C 1019.2 hPa Calm   1.6 km/h 47% 0 mm WeatherDisplay:10.37 W/m2 FEW
13:10 32.7 °C 18.8 °C 1019.2 hPa Calm   3.2 km/h 44% 0 mm WeatherDisplay:10.37 W/m2 FEW
13:15 32.4 °C 19 °C 1019.2 hPa Calm   1.6 km/h 45% 0 mm WeatherDisplay:10.37 W/m2 FEW
13:20 32.5 °C 19.1 °C 1019.2 hPa East 1.6 km/h 3.2 km/h 45% 0 mm WeatherDisplay:10.37 W/m2 SCT
13:25 32.6 °C 19.8 °C 1019.2 hPa Calm     47% 0 mm WeatherDisplay:10.37 W/m2 SCT
13:30 32.7 °C 19.2 °C 1019.2 hPa Calm     45% 0 mm WeatherDisplay:10.37 W/m2 SCT
13:35 32.9 °C 19.8 °C 1019.2 hPa Calm     46% 0 mm WeatherDisplay:10.37 W/m2 SCT
13:40 33.2 °C 18.9 °C 1018.8 hPa Calm     43% 0 mm WeatherDisplay:10.37 W/m2 SCT
13:45 33.3 °C 19 °C 1018.8 hPa Calm     43% 0 mm WeatherDisplay:10.37 W/m2 SCT
13:50 33.5 °C 19.2 °C 1018.8 hPa Calm   1.6 km/h 43% 0 mm WeatherDisplay:10.37 W/m2 SCT
13:55 33.8 °C 19.1 °C 1018.8 hPa Calm   1.6 km/h 42% 0 mm WeatherDisplay:10.37 W/m2 SCT
14:00 33.8 °C 19.8 °C 1018.8 hPa Calm   1.6 km/h 44% 0 mm WeatherDisplay:10.37 W/m2 SCT
14:10 33.7 °C 20.4 °C 1018.8 hPa Calm   1.6 km/h 46% 0 mm WeatherDisplay:10.37 W/m2 SCT
14:15 33.6 °C 20 °C 1018.8 hPa Calm   1.6 km/h 45% 0 mm WeatherDisplay:10.37 W/m2 SCT
14:20 33.2 °C 20.1 °C 1018.8 hPa Calm     46% 0 mm WeatherDisplay:10.37 W/m2 SCT
14:25 32.9 °C 20.5 °C 1018.8 hPa Calm   3.2 km/h 48% 0 mm WeatherDisplay:10.37 W/m2 SCT
14:30 32.6 °C 19.8 °C 1018.8 hPa Calm   1.6 km/h 47% 0 mm WeatherDisplay:10.37 W/m2 SCT
14:35 32.6 °C 20.1 °C 1018.8 hPa Calm   3.2 km/h 48% 0 mm WeatherDisplay:10.37 W/m2 SCT
14:40 32.3 °C 18.9 °C 1018.5 hPa NNW 1.6 km/h 4.8 km/h 45% 0 mm WeatherDisplay:10.37 W/m2 SCT
14:45 32.3 °C 19.9 °C 1018.5 hPa Calm   1.6 km/h 48% 0 mm WeatherDisplay:10.37 W/m2 SCT
14:50 32.4 °C 20.3 °C 1018.5 hPa Calm   1.6 km/h 49% 0 mm WeatherDisplay:10.37 W/m2 SCT
14:55 32.3 °C 20.3 °C 1018.5 hPa West 1.6 km/h 3.2 km/h 49% 0 mm WeatherDisplay:10.37 W/m2 SCT
15:00 32.3 °C 19.9 °C 1018.5 hPa Calm     48% 0 mm WeatherDisplay:10.37 W/m2 SCT
15:10 32.2 °C 19.8 °C 1018.2 hPa Calm   1.6 km/h 48% 0 mm WeatherDisplay:10.37 W/m2 SCT
15:15 32.2 °C 19.5 °C 1018.2 hPa Calm   1.6 km/h 47% 0 mm WeatherDisplay:10.37 W/m2 SCT
15:20 32.3 °C 20.6 °C 1018.2 hPa Calm     50% 0 mm WeatherDisplay:10.37 W/m2 SCT
15:25 32 °C 20.3 °C 1018.2 hPa Calm     50% 0 mm WeatherDisplay:10.37 W/m2 SCT
15:30 31.7 °C 19.7 °C 1018.2 hPa Calm     49% 0 mm WeatherDisplay:10.37 W/m2 SCT
15:35 31.6 °C 19.6 °C 1017.8 hPa Calm   3.2 km/h 49% 0 mm WeatherDisplay:10.37 W/m2 SCT
15:40 31.7 °C 19.7 °C 1017.8 hPa Calm   1.6 km/h 49% 0 mm WeatherDisplay:10.37 W/m2 SCT
15:45 31.8 °C 19.4 °C 1017.8 hPa Calm   3.2 km/h 48% 0 mm WeatherDisplay:10.37 W/m2 SCT
15:50 31.9 °C 19.2 °C 1017.8 hPa Calm   1.6 km/h 47% 0 mm WeatherDisplay:10.37 W/m2 SCT
15:55 31.9 °C 19.9 °C 1017.8 hPa Calm   1.6 km/h 49% 0 mm WeatherDisplay:10.37 W/m2 SCT
16:00 32 °C 18.9 °C 1017.8 hPa Calm     46% 0 mm WeatherDisplay:10.37 W/m2 SCT
16:05 31.9 °C 18.6 °C 1017.5 hPa Calm     45% 0 mm WeatherDisplay:10.37 W/m2 SCT
16:10 31.9 °C 19.2 °C 1017.5 hPa Calm     47% 0 mm WeatherDisplay:10.37 W/m2 SCT
16:15 32 °C 19.9 °C 1017.5 hPa Calm     49% 0 mm WeatherDisplay:10.37 W/m2 SCT
16:20 32.1 °C 20.1 °C 1017.5 hPa Calm     49% 0 mm WeatherDisplay:10.37 W/m2 BKN
16:25 32.2 °C 19.1 °C 1017.5 hPa Calm     46% 0 mm WeatherDisplay:10.37 W/m2 BKN
16:30 32.2 °C 18.7 °C 1017.5 hPa Calm     45% 0 mm WeatherDisplay:10.37 W/m2 BKN
16:40 32.1 °C 20.1 °C 1017.5 hPa Calm     49% 0 mm WeatherDisplay:10.37 W/m2 BKN
16:45 32.1 °C 18.7 °C 1017.5 hPa Calm     45% 0 mm WeatherDisplay:10.37 W/m2 BKN
16:50 32.1 °C 19.7 °C 1017.5 hPa Calm     48% 0 mm WeatherDisplay:10.37 W/m2 BKN
16:55 32.2 °C 19.8 °C 1017.5 hPa Calm     48% 0 mm WeatherDisplay:10.37 W/m2 BKN
17:00 32.3 °C 19.6 °C 1017.5 hPa Calm   1.6 km/h 47% 0 mm WeatherDisplay:10.37 W/m2 BKN
17:05 32.3 °C 19.9 °C 1017.5 hPa Calm   1.6 km/h 48% 0 mm WeatherDisplay:10.37 W/m2 BKN
17:10 32.2 °C 20.1 °C 1017.5 hPa Calm     49% 0 mm WeatherDisplay:10.37 W/m2 BKN
17:15 32.1 °C 19.1 °C 1017.5 hPa Calm     46% 0 mm WeatherDisplay:10.37 W/m2 BKN
17:20 31.9 °C 19.9 °C 1017.5 hPa Calm     49% 0 mm WeatherDisplay:10.37 W/m2 BKN
17:25 31.8 °C 20.1 °C 1017.5 hPa Calm     50% 0 mm WeatherDisplay:10.37 W/m2 BKN
17:30 31.6 °C 20.2 °C 1017.2 hPa Calm     51% 0 mm WeatherDisplay:10.37 W/m2 BKN
17:40 30.7 °C 20.3 °C 1017.2 hPa Calm     54% 0 mm WeatherDisplay:10.37 W/m2 BKN
17:45 30.7 °C 20 °C 1017.2 hPa Calm     53% 0 mm WeatherDisplay:10.37 W/m2 BKN
17:50 30.6 °C 20.2 °C 1017.2 hPa Calm     54% 0 mm WeatherDisplay:10.37 W/m2 BKN
17:55 30.6 °C 19.9 °C 1017.2 hPa Calm     53% 0 mm WeatherDisplay:10.37 W/m2 BKN
18:00 30.6 °C 19.7 °C 1017.2 hPa Calm     52% 0 mm WeatherDisplay:10.37 W/m2 BKN
18:10 30.4 °C 19.7 °C 1017.5 hPa Calm     53% 0 mm WeatherDisplay:10.37 W/m2 BKN
18:15 30.2 °C 19.8 °C 1017.5 hPa Calm     54% 0 mm WeatherDisplay:10.37 W/m2 BKN
18:20 30.1 °C 19.1 °C 1017.5 hPa Calm     52% 0 mm WeatherDisplay:10.37 W/m2 SCT
18:25 30 °C 19.1 °C 1017.5 hPa Calm     52% 0 mm WeatherDisplay:10.37 W/m2 SCT
18:30 29.8 °C 19.2 °C 1017.5 hPa Calm     53% 0 mm WeatherDisplay:10.37 W/m2 SCT
18:35 29.8 °C 19.2 °C 1017.5 hPa Calm     53% 0 mm WeatherDisplay:10.37 W/m2 SCT
18:40 29.7 °C 19.1 °C 1017.5 hPa Calm     53% 0 mm WeatherDisplay:10.37 W/m2 SCT
18:45 29.6 °C 18.7 °C 1017.5 hPa Calm     52% 0 mm WeatherDisplay:10.37 W/m2 SCT
18:50 29.6 °C 19 °C 1017.5 hPa Calm     53% 0 mm WeatherDisplay:10.37 W/m2 SCT
18:55 29.4 °C 18.9 °C 1017.5 hPa Calm     53% 0 mm WeatherDisplay:10.37 W/m2 SCT
19:00 29.3 °C 19.1 °C 1017.5 hPa Calm     54% 0 mm WeatherDisplay:10.37 W/m2 SCT
19:05 29.3 °C 19.3 °C 1017.5 hPa Calm     55% 0 mm WeatherDisplay:10.37 W/m2 SCT
19:10 29.2 °C 19.6 °C 1017.8 hPa Calm     56% 0 mm WeatherDisplay:10.37 W/m2 SCT
19:15 29.2 °C 19.5 °C 1017.8 hPa Calm     56% 0 mm WeatherDisplay:10.37 W/m2 SCT
19:20 29 °C 19.6 °C 1017.8 hPa Calm     57% 0 mm WeatherDisplay:10.37 W/m2 SCT
19:25 28.9 °C 19.5 °C 1017.8 hPa Calm     57% 0 mm WeatherDisplay:10.37 W/m2 SCT
19:30 28.8 °C 19.7 °C 1017.8 hPa Calm     58% 0 mm WeatherDisplay:10.37 W/m2 SCT
19:35 28.7 °C 19.7 °C 1017.8 hPa Calm     58% 0 mm WeatherDisplay:10.37 W/m2 SCT
19:40 28.7 °C 19.6 °C 1017.8 hPa Calm     58% 0 mm WeatherDisplay:10.37 W/m2 SCT
19:45 28.5 °C 19.4 °C 1018.2 hPa Calm     58% 0 mm WeatherDisplay:10.37 W/m2 SCT
19:50 28.4 °C 19.3 °C 1018.2 hPa Calm     58% 0 mm WeatherDisplay:10.37 W/m2 SCT
19:55 28.3 °C 19.2 °C 1018.2 hPa Calm     58% 0 mm WeatherDisplay:10.37 W/m2 SCT
20:00 28.2 °C 19.4 °C 1018.5 hPa Calm     59% 0 mm WeatherDisplay:10.37 W/m2 SCT
20:05 28.1 °C 19.6 °C 1018.5 hPa Calm     60% 0 mm WeatherDisplay:10.37 W/m2 SCT
20:10 28 °C 19.8 °C 1018.5 hPa Calm     61% 0 mm WeatherDisplay:10.37 W/m2 SCT
20:15 27.9 °C 19.9 °C 1018.5 hPa Calm     62% 0 mm WeatherDisplay:10.37 W/m2 SCT
20:20 27.7 °C 19.8 °C 1018.5 hPa Calm     62% 0 mm WeatherDisplay:10.37 W/m2 SCT
20:25 27.6 °C 20.1 °C 1018.5 hPa Calm     64% 0 mm WeatherDisplay:10.37 W/m2 SCT
20:30 27.4 °C 20.2 °C 1018.8 hPa Calm     65% 0 mm WeatherDisplay:10.37 W/m2 SCT
20:35 27.2 °C 20.3 °C 1018.8 hPa Calm     66% 0 mm WeatherDisplay:10.37 W/m2 SCT
20:40 27.1 °C 20.2 °C 1018.8 hPa Calm     66% 0 mm WeatherDisplay:10.37 W/m2 SCT
20:45 27 °C 20.3 °C 1018.8 hPa Calm     67% 0 mm WeatherDisplay:10.37 W/m2 SCT
20:50 26.9 °C 20.6 °C 1018.8 hPa Calm     68% 0 mm WeatherDisplay:10.37 W/m2 SCT
20:55 26.8 °C 20.7 °C 1018.8 hPa Calm     69% 0 mm WeatherDisplay:10.37 W/m2 SCT
21:00 26.7 °C 20.6 °C 1019.2 hPa Calm     69% 0 mm WeatherDisplay:10.37 W/m2 SCT
21:10 26.4 °C 20.8 °C 1019.2 hPa Calm     71% 0 mm WeatherDisplay:10.37 W/m2 SCT
21:15 26.3 °C 20.8 °C 1019.2 hPa Calm     72% 0 mm WeatherDisplay:10.37 W/m2 SCT
21:20 26.2 °C 20.7 °C 1019.2 hPa Calm     72% 0 mm WeatherDisplay:10.37 W/m2 SCT
21:25 26 °C 20.8 °C 1019.2 hPa Calm     73% 0 mm WeatherDisplay:10.37 W/m2 SCT
21:30 26 °C 20.8 °C 1019.2 hPa Calm     73% 0 mm WeatherDisplay:10.37 W/m2 SCT
21:40 25.9 °C 20.7 °C 1019.2 hPa Calm     73% 0 mm WeatherDisplay:10.37 W/m2 SCT
21:45 25.8 °C 20.8 °C 1019.5 hPa Calm     74% 0 mm WeatherDisplay:10.37 W/m2 SCT
21:50 25.8 °C 20.8 °C 1019.5 hPa Calm     74% 0 mm WeatherDisplay:10.37 W/m2 SCT
21:55 25.7 °C 20.5 °C 1019.5 hPa Calm     73% 0 mm WeatherDisplay:10.37 W/m2 SCT
22:00 25.7 °C 20.7 °C 1019.5 hPa Calm     74% 0 mm WeatherDisplay:10.37 W/m2 SCT
22:05 25.6 °C 20.6 °C 1019.5 hPa Calm     74% 0 mm WeatherDisplay:10.37 W/m2 SCT
22:10 25.6 °C 20.8 °C 1019.5 hPa Calm     75% 0 mm WeatherDisplay:10.37 W/m2 SCT
22:15 25.5 °C 20.5 °C 1019.5 hPa Calm     74% 0 mm WeatherDisplay:10.37 W/m2 SCT
22:20 25.4 °C 20.6 °C 1019.5 hPa Calm     75% 0 mm WeatherDisplay:10.37 W/m2 FEW
22:25 25.2 °C 20.7 °C 1019.5 hPa Calm     76% 0 mm WeatherDisplay:10.37 W/m2 FEW
22:30 25.1 °C 20.8 °C 1019.5 hPa Calm     77% 0 mm WeatherDisplay:10.37 W/m2 FEW
22:35 25 °C 20.7 °C 1019.9 hPa Calm     77% 0 mm WeatherDisplay:10.37 W/m2 FEW
22:40 25 °C 20.9 °C 1019.9 hPa Calm     78% 0 mm WeatherDisplay:10.37 W/m2 FEW
22:45 24.9 °C 20.8 °C 1019.9 hPa Calm     78% 0 mm WeatherDisplay:10.37 W/m2 FEW
22:50 24.8 °C 20.7 °C 1019.9 hPa Calm     78% 0 mm WeatherDisplay:10.37 W/m2 FEW
22:55 24.7 °C 20.8 °C 1019.9 hPa Calm     79% 0 mm WeatherDisplay:10.37 W/m2 FEW
23:00 24.6 °C 20.7 °C 1019.9 hPa Calm     79% 0 mm WeatherDisplay:10.37 W/m2 FEW
23:10 24.5 °C 20.8 °C 1019.9 hPa Calm     80% 0 mm WeatherDisplay:10.37 W/m2 FEW
23:15 24.4 °C 20.7 °C 1019.9 hPa Calm     80% 0 mm WeatherDisplay:10.37 W/m2 FEW
23:20 24.3 °C 20.7 °C 1019.9 hPa Calm     80% 0 mm WeatherDisplay:10.37 W/m2 CLR
23:25 24.3 °C 20.7 °C 1019.9 hPa Calm     80% 0 mm WeatherDisplay:10.37 W/m2 CLR
23:30 24.3 °C 20.9 °C 1019.9 hPa Calm     81% 0 mm WeatherDisplay:10.37 W/m2 CLR
23:35 24.3 °C 20.8 °C 1019.9 hPa Calm     81% 0 mm WeatherDisplay:10.37 W/m2 CLR
23:40 24.2 °C 20.8 °C 1019.9 hPa Calm     81% 0 mm WeatherDisplay:10.37 W/m2 CLR
23:45 24.2 °C 20.7 °C 1019.9 hPa Calm     81% 0 mm WeatherDisplay:10.37 W/m2 CLR
23:50 24.2 °C 20.7 °C 1019.9 hPa Calm     81% 0 mm WeatherDisplay:10.37 W/m2 CLR
23:55 24.1 °C 20.8 °C 1019.9 hPa Calm     82% 0 mm WeatherDisplay:10.37 W/m2 CLR
Piedmont Bend
Compliments of Weather Underground - 4 mb